Mount Airy, NC

12:14 AM EDT on September 20, 2019 (GMT -0400)
Mount Airy-Surry County

Weather History for KMWK - July, 2019

Change the Weather History Date:

Friday, July 19, 2019

  Actual Average (WUND) Record (WUND)
Temperature  
Mean Temperature 80 °F -  
Max Temperature 91 °F - - (-1)
Min Temperature 69 °F - - (-1)
Cooling Degree Days 15    
Growing Degree Days 30 (Base 50)    
Moisture  
Dew Point 74 °F    
Average Humidity 79    
Maximum Humidity 92    
Minimum Humidity 55    
Precipitation  
Precipitation 0.00 in - - ()
Sea Level Pressure  
Sea Level Pressure 30.06 in    
Wind  
Wind Speed 1 mph (South)    
Max Wind Speed 10 mph    
Max Gust Speed -    
Visibility 10 miles    
Events      
Averages and records for this station are not official NWS values.
T = Trace of Precipitation, MM = Missing Value Source: NWS Daily Summary

Daily Weather History Graph

Daily Weather History Graph

Search for Another Location

Airport or City:

Astronomy

Jul. 19, 2019 Rise Set
Actual Time 6:18 AM EDT 8:38 PM EDT
Civil Twilight 5:49 AM EDT 9:07 PM EDT
Nautical Twilight 5:12 AM EDT 9:43 PM EDT
Astronomical Twilight 4:33 AM EDT 10:23 PM EDT
Moon 10:39 PM EDT (7/19) 8:41 AM EDT (7/19)
Length of Visible Light 15h 18m
Length of Day
14h 19m
Waning Gibbous, 93% of the Moon is Illuminated
Jul 19
Waning Gibbous
Jul 24
Last Quarter
Jul 31
New
Aug 7
First Quarter
Aug 15
Full

Hourly Weather History & Observations

Time (EDT) Temp. Heat Index Dew Point Humidity Pressure Visibility Wind Dir Wind Speed Gust Speed Precip Events Conditions
12:00 AM 72.5 °F - 69.8 °F 91% 30.04 in 10.0 mi Calm Calm - N/A   Clear
12:20 AM 72.5 °F - 69.8 °F 91% 30.04 in 10.0 mi Calm Calm - N/A   Clear
12:40 AM 72.5 °F - 69.8 °F 91% 30.05 in 10.0 mi Calm Calm - N/A   Clear
1:00 AM 72.5 °F - 69.8 °F 91% 30.06 in 10.0 mi Calm Calm - N/A   Clear
1:20 AM 72.5 °F - 69.8 °F 91% 30.06 in 10.0 mi Calm Calm - N/A   Clear
1:40 AM 72.5 °F - 69.8 °F 91% 30.06 in 10.0 mi Calm Calm - N/A   Clear
2:00 AM 72.3 °F - 69.6 °F 91% 30.06 in 10.0 mi Calm Calm - N/A   Clear
2:20 AM 71.6 °F - 68.9 °F 91% 30.06 in 10.0 mi Calm Calm - N/A   Clear
2:40 AM 71.2 °F - 68.5 °F 91% 30.05 in 10.0 mi Calm Calm - N/A   Clear
3:00 AM 72.0 °F - 69.3 °F 91% 30.05 in 10.0 mi NW 3.5 mph - N/A   Clear
3:20 AM 72.5 °F - 69.8 °F 91% 30.04 in 10.0 mi Calm Calm - N/A   Clear
3:40 AM 72.0 °F - 69.3 °F 91% 30.04 in 10.0 mi Calm Calm - N/A   Clear
4:00 AM 71.2 °F - 68.7 °F 92% 30.03 in 10.0 mi Calm Calm - N/A   Clear
4:20 AM 71.8 °F - 69.1 °F 91% 30.03 in 10.0 mi Calm Calm - N/A   Clear
4:40 AM 72.5 °F - 69.8 °F 91% 30.04 in 10.0 mi NW 3.5 mph - N/A   Clear
5:00 AM 72.7 °F - 69.8 °F 91% 30.04 in 10.0 mi Calm Calm - N/A   Clear
5:20 AM 71.8 °F - 69.1 °F 91% 30.04 in 10.0 mi Calm Calm - N/A   Clear
5:40 AM 72.1 °F - 69.4 °F 91% 30.04 in 10.0 mi Calm Calm - N/A   Clear
6:00 AM 70.7 °F - 68.0 °F 91% 30.05 in 10.0 mi Calm Calm - N/A   Clear
6:20 AM 70.7 °F - 68.0 °F 91% 30.05 in 10.0 mi Calm Calm - N/A   Clear
6:40 AM 69.8 °F - 67.3 °F 92% 30.06 in 10.0 mi Calm Calm - N/A   Clear
7:00 AM 70.7 °F - 68.0 °F 91% 30.06 in 10.0 mi Calm Calm - N/A   Clear
7:20 AM 72.5 °F - 69.8 °F 91% 30.07 in 10.0 mi Calm Calm - N/A   Clear
7:40 AM 75.0 °F - 71.8 °F 90% 30.07 in 10.0 mi Calm Calm - N/A   Clear
8:00 AM 77.4 °F - 73.0 °F 86% 30.07 in 10.0 mi Calm Calm - N/A   Clear
8:20 AM 77.9 °F - 72.9 °F 84% 30.08 in 10.0 mi Calm Calm - N/A   Clear
8:40 AM 77.9 °F - 73.4 °F 86% 30.09 in 10.0 mi Calm Calm - N/A   Clear
9:00 AM 80.1 °F 84.9 °F 74.8 °F 84% 30.09 in 10.0 mi Calm Calm - N/A   Clear
9:20 AM 80.6 °F 86.0 °F 75.0 °F 83% 30.10 in 10.0 mi Calm Calm - N/A   Clear
9:40 AM 81.3 °F 87.2 °F 74.7 °F 80% 30.10 in 10.0 mi Calm Calm - N/A   Clear
10:00 AM 82.6 °F 89.9 °F 75.6 °F 79% 30.10 in 10.0 mi Calm Calm - N/A   Clear
10:20 AM 84.2 °F 93.0 °F 75.9 °F 76% 30.10 in 10.0 mi Calm Calm - N/A   Clear
10:40 AM 84.0 °F 92.9 °F 76.1 °F 77% 30.11 in 10.0 mi Calm Calm - N/A   Clear
11:00 AM 83.8 °F 92.1 °F 75.4 °F 76% 30.11 in 10.0 mi Calm Calm - N/A   Clear
11:20 AM 84.6 °F 93.5 °F 75.7 °F 75% 30.11 in 10.0 mi NNE 3.5 mph - N/A   Clear
11:40 AM 84.6 °F 93.9 °F 76.1 °F 76% 30.11 in 10.0 mi West 3.5 mph - N/A   Clear
12:00 PM 86.0 °F 96.0 °F 75.9 °F 72% 30.11 in 10.0 mi WSW 3.5 mph - N/A   Clear
12:20 PM 85.6 °F 95.5 °F 75.9 °F 73% 30.11 in 10.0 mi SSW 4.6 mph - N/A   Clear
12:40 PM 87.1 °F 97.3 °F 75.7 °F 69% 30.10 in 10.0 mi WSW 3.5 mph - N/A   Clear
1:00 PM 86.9 °F 97.8 °F 76.3 °F 71% 30.10 in 10.0 mi WNW 3.5 mph - N/A   Clear
1:20 PM 88.2 °F 99.5 °F 76.5 °F 68% 30.10 in 7.0 mi Calm Calm - N/A   Clear
1:40 PM 88.7 °F 100.4 °F 76.6 °F 67% 30.09 in 10.0 mi Calm Calm - N/A   Scattered Clouds
2:00 PM 90.0 °F 104.5 °F 78.1 °F 68% 30.09 in 10.0 mi Calm Calm - N/A   Clear
2:20 PM 90.0 °F 100.7 °F 75.6 °F 62% 30.08 in 10.0 mi Calm Calm - N/A   Clear
2:40 PM 90.5 °F 103.4 °F 76.8 °F 64% 30.07 in 7.0 mi SSW 4.6 mph - N/A   Scattered Clouds
3:00 PM 90.7 °F 101.9 °F 75.6 °F 61% 30.07 in 10.0 mi Calm Calm - N/A   Scattered Clouds
3:20 PM 89.6 °F 98.2 °F 73.8 °F 59% 30.07 in 10.0 mi Calm Calm - N/A   Clear
3:40 PM 89.2 °F 103.1 °F 77.7 °F 69% 30.07 in 7.0 mi East 10.4 mph - N/A   Clear
4:00 PM 90.3 °F 99.3 °F 73.6 °F 58% 30.06 in 10.0 mi SE 4.6 mph - N/A   Clear
4:20 PM 91.0 °F 102.2 °F 75.6 °F 60% 30.05 in 7.0 mi SSE 4.6 mph - N/A   Clear
4:40 PM 90.7 °F 102.6 °F 76.1 °F 62% 30.05 in 10.0 mi ESE 4.6 mph - N/A   Clear
5:00 PM 90.7 °F 99.6 °F 73.8 °F 57% 30.04 in 10.0 mi SE 4.6 mph - N/A   Clear
5:20 PM 90.7 °F 98.5 °F 72.7 °F 55% 30.03 in 10.0 mi SE 4.6 mph - N/A   Clear
5:40 PM 90.9 °F 101.2 °F 74.8 °F 59% 30.03 in 10.0 mi SE 5.8 mph - N/A   Clear
6:00 PM 90.5 °F 99.7 °F 74.1 °F 58% 30.03 in 10.0 mi Calm Calm - N/A   Clear
6:20 PM 90.5 °F 101.5 °F 75.2 °F 61% 30.03 in 10.0 mi SSE 3.5 mph - N/A   Clear
6:40 PM 90.5 °F 102.1 °F 75.7 °F 62% 30.03 in 10.0 mi Calm Calm - N/A   Clear
7:00 PM 90.1 °F 101.8 °F 75.9 °F 63% 30.03 in 10.0 mi Calm Calm - N/A   Clear
7:20 PM 89.8 °F 100.9 °F 75.6 °F 63% 30.04 in 10.0 mi Calm Calm - N/A   Clear
7:40 PM 89.2 °F 100.1 °F 75.7 °F 64% 30.03 in 10.0 mi Calm Calm - N/A   Clear
8:00 PM 88.0 °F 99.1 °F 76.1 °F 68% 30.04 in 10.0 mi Calm Calm - N/A   Clear
8:20 PM 86.9 °F 97.8 °F 76.3 °F 71% 30.04 in 10.0 mi Calm Calm - N/A   Clear
8:40 PM 84.4 °F 96.3 °F 78.8 °F 83% 30.04 in 10.0 mi Calm Calm - N/A   Clear
9:00 PM 82.6 °F 92.3 °F 78.3 °F 87% 30.04 in 10.0 mi Calm Calm - N/A   Clear
9:20 PM 82.0 °F 90.8 °F 77.9 °F 87% 30.04 in 10.0 mi Calm Calm - N/A   Clear
9:40 PM 80.1 °F 85.7 °F 76.5 °F 89% 30.04 in 10.0 mi Calm Calm - N/A   Clear
10:00 PM 80.4 °F 86.6 °F 76.8 °F 89% 30.06 in 10.0 mi Calm Calm - N/A   Clear
10:20 PM 80.4 °F 86.5 °F 76.5 °F 88% 30.06 in 10.0 mi Calm Calm - N/A   Clear
10:40 PM 78.4 °F - 75.4 °F 90% 30.07 in 10.0 mi Calm Calm - N/A   Clear
11:00 PM 78.4 °F - 75.2 °F 90% 30.07 in 10.0 mi Calm Calm - N/A   Clear
11:20 PM 79.0 °F - 75.4 °F 89% 30.07 in 10.0 mi Calm Calm - N/A   Clear
11:40 PM 78.6 °F - 75.2 °F 89% 30.07 in 10.0 mi Calm Calm - N/A   Scattered Clouds